Flag for Germany Weather past 2 weeks in Garbsen, Lower Saxony, Germany

Now
50 °F

Scattered clouds.


Feels Like: 46 °F
Forecast: 45 / 51 °F
Wind: 12 mph from South

Location: Hannover

Current Time: Mar 28, 2015 at 12:46:11 PM

Latest Report: Mar 28, 2015 at 12:20 PM


Visibility: N/A

Pressure: 30.07 "Hg

Humidity: 58%

Dew point: 36 °F

Location of GarbsenLocation

Historic Weather in Garbsen — Graph

°F

Garbsen temperature yesterday

Maximum temperature yesterday: 45 °F (at 8:50 AM)
Minimum temperature yesterday: 39 °F (at 10:20 PM)
Average temperature yesterday: 42 °F

Past Weeks' High & Low Weather Summary

 TemperatureHumidityPressure
High61 °F (Mar 18, 2:20 PM)100% (Mar 16, 6:20 AM)30.42 "Hg (Mar 16, 6:20 AM)
Low28 °F (Mar 20, 3:50 AM)36% (Mar 18, 2:20 PM)29.62 "Hg (Mar 25, 4:50 PM)
Average42 °F78%30.13 "Hg
* Reported Mar 13 11:20 AM — Mar 28 11:50 AM, Garbsen, Weather by CustomWeather, © 2015

Note: Actual official high and low records may vary slightly from our data, if they occured in-between our weather recording intervals... More about our weather records

Advertising

Garbsen weather history for previous 24 hours

 ConditionsComfort  
Time TempWeatherWind HumidityBarometerVisibility
11:50 AM
Sat, Mar 28
48 °FScattered clouds.8 mph58%30.07 "HgN/A
11:20 AM46 °FScattered clouds.9 mph62%30.09 "HgN/A
10:50 AM45 °FScattered clouds.9 mph66%30.09 "HgN/A
10:20 AM46 °FScattered clouds.7 mph71%30.09 "HgN/A
9:50 AM45 °FScattered clouds.7 mph76%30.12 "HgN/A
9:20 AM45 °FScattered clouds.8 mph76%30.12 "HgN/A
8:50 AM43 °FPartly sunny.7 mph81%30.15 "HgN/A
8:20 AM41 °FPartly sunny.8 mph87%30.15 "HgN/A
7:50 AM41 °FPartly sunny.5 mph87%30.15 "HgN/A
7:20 AM39 °FPartly sunny.5 mph93%30.15 "HgN/A
6:50 AM39 °FPartly sunny.5 mph93%30.15 "HgN/A
6:20 AM39 °FPartly sunny.2 mph93%30.15 "HgN/A
5:50 AM39 °FPassing clouds.3 mph93%30.18 "HgN/A
5:20 AM39 °FPassing clouds.6 mph93%30.15 "HgN/A
4:20 AM41 °FPassing clouds.5 mph87%30.15 "HgN/A
3:50 AM41 °FPassing clouds.5 mph87%30.15 "HgN/A
3:20 AM41 °FClear.5 mph87%30.15 "Hg10 mi
2:50 AM41 °FPassing clouds.5 mph87%30.15 "HgN/A
2:20 AM41 °FPassing clouds.8 mph87%30.15 "HgN/A
1:50 AM41 °FPassing clouds.7 mph87%30.15 "HgN/A
1:20 AM41 °FPassing clouds.8 mph87%30.15 "HgN/A
12:50 AM41 °FPassing clouds.7 mph87%30.15 "HgN/A
12:20 AM41 °FPassing clouds.8 mph87%30.15 "HgN/A
11:50 PM
Fri, Mar 27
41 °FPassing clouds.8 mph87%30.15 "HgN/A
11:20 PM41 °FPassing clouds.8 mph87%30.15 "HgN/A
10:50 PM39 °FClear.8 mph87%30.12 "Hg10 mi
10:20 PM39 °FPartly cloudy.12 mph93%30.12 "HgN/A
9:50 PM41 °FPassing clouds.14 mph87%30.12 "HgN/A
9:20 PM41 °FLight rain. Partly cloudy.13 mph93%30.12 "Hg4 mi
8:50 PM41 °FLight rain. Passing clouds.14 mph93%30.09 "Hg4 mi
8:20 PM41 °FLight rain. Partly cloudy.17 mph93%30.09 "Hg4 mi
7:50 PM41 °FLight rain. Passing clouds.14 mph93%30.07 "Hg4 mi
7:20 PM41 °FLight rain. Passing clouds.18 mph93%30.07 "HgN/A
6:50 PM43 °FPassing clouds.16 mph87%30.04 "HgN/A
6:20 PM43 °FPartly sunny.15 mph93%30.04 "Hg5 mi
5:50 PM43 °FSprinkles. Partly sunny.14 mph93%30.01 "Hg5 mi
5:20 PM43 °FSprinkles. Partly sunny.17 mph87%29.98 "Hg5 mi
4:50 PM43 °FPartly sunny.17 mph87%29.98 "HgN/A
4:20 PM43 °FSprinkles. Partly sunny.21 mph87%29.95 "HgN/A
3:50 PM45 °FPartly sunny.16 mph81%29.95 "HgN/A
3:20 PM45 °FSprinkles. Broken clouds.15 mph81%29.92 "HgN/A
2:50 PM43 °FSprinkles. Broken clouds.14 mph87%29.92 "HgN/A
2:20 PM43 °FSprinkles. Broken clouds.12 mph87%29.92 "Hg3 mi
1:50 PM43 °FSprinkles. Partly sunny.12 mph87%29.92 "Hg3 mi
1:20 PM45 °FSprinkles. Broken clouds.15 mph76%29.89 "HgN/A
12:50 PM45 °FBroken clouds.17 mph76%29.89 "HgN/A
12:20 PM45 °FSprinkles. Partly sunny.16 mph76%29.89 "HgN/A
Weather by CustomWeather, © 2015

See weather overviewHow to use our weather pages